Regional Weather Roundup
Issued by NWS Burlington, VT

Home | Current Version | Previous Version | Text Only | Print | Product List | Glossary On
Versions: 1 2 3 4 5 6 7 8 9 10 11 12 13 14 15 16 17 18 19 20 21 22 23 24 25 26 27 28 29 30 31 32 33 34 35 36 37 38 39 40 41 42 43 44 45 46 47 48 49 50
000
ASUS41 KBTV 211330
RWRBTV
VERMONT REGIONAL WEATHER ROUNDUP
NATIONAL WEATHER SERVICE BURLINGTON VT
900 AM EDT SAT APR 21 2018

NOTE: "FAIR" INDICATES FEW OR NO CLOUDS BELOW 12,000 FEET WITH NO
SIGNIFICANT WEATHER AND/OR OBSTRUCTIONS TO VISIBILITY.

* THESE REPORTS ARE NOT UNDER NWS QUALITY CONTROL AND/OR DO NOT
  REPORT WEATHER SUCH AS PRECIPITATION AND FOG.

VTZ001>019-211400-
_____VERMONT_____


CITY           SKY/WX    TMP DP  RH WIND       PRES   REMARKS
BURLINGTON     FAIR      44  24  45 NW9       30.33S
MONTPELIER     FAIR      38  25  59 NW10G18   30.32R WCI  31
MORRISVILLE    FAIR      40  24  53 NW7       30.30S
ST. JOHNSBURY*   N/A     41  25  53 MISG      30.26F
LYNDONVILLE*   FAIR      39  23  52 W9        30.28S
MIDDLEBURY*    FAIR      41  27  56 CALM      30.33S
RUTLAND*       FAIR      40  27  59 VRB3      30.33R
SPRINGFIELD    FAIR      42  25  50 VRB7G17   30.32S
HIGHGATE*      FAIR      41  26  54 NW6       30.33S
NEWPORT*       FAIR      39  24  55 NW8       30.29R
BENNINGTON     FAIR      37  26  64 CALM      30.34F
ISLAND POND*     N/A     37 N/A N/A NW7         N/A
GALLUP MILLS*    N/A     39 N/A N/A MISG        N/A
UNION VILLAGE*   N/A     43 N/A N/A MISG        N/A
MT. MANSFIELD*   N/A     27 N/A N/A CALM        N/A

_____LAKE CHAMPLAIN_____


CITY           SKY/WX    TMP DP  RH WIND       PRES   REMARKS
BURTON ISLAND*   N/A     39  28  65 N1          N/A
COLCHESTER RF*   N/A     39  27  60 NW8         N/A

$$

NYZ007-026>031-035-052-083-087-211400-
_____NORTHERN NEW YORK_____


CITY           SKY/WX    TMP DP  RH WIND       PRES   REMARKS
PLATTSBURGH    FAIR      45  22  40 NW8       30.33S
SARANAC LAKE   FAIR      34  24  67 SW7       30.30S WCI  28
MASSENA        FAIR      41  27  57 W7        30.40R
OGDENSBURG*    FAIR      43  26  50 W5        30.40R
POTSDAM*       FAIR      39  25  56 CALM      30.39R
STARK FALLS*     N/A     36 N/A N/A W5          N/A  WCI  32
WATERTOWN      FAIR      39  31  72 SW5       30.43R
FT DRUM        FAIR      40  24  53 W7        30.40R
ALBANY         FAIR      44  27  51 NW10      30.38S
GLENS FALLS    FAIR      41  28  60 CALM      30.35F

$$
NHZ002-005-011-211400-
_____NEW HAMPSHIRE_____


CITY           SKY/WX    TMP DP  RH WIND       PRES   REMARKS
LEBANON        FAIR      44  23  43 N10       30.30R
KEENE          FAIR      44  28  53 VRB3      30.32F
MT WASHINGTON  BLWGSNOW  14  14 100 NW47G62     N/A  VSB 1/16WCI -11
PLYMOUTH       FAIR      43  23  45 NW8       30.27F
WHITEFIELD     CLOUDY    40  27  59 VRB7      30.26S

$$

_____REGIONAL QUEBEC LOCATIONS_____


CITY           SKY/WX    TMP DP  RH WIND       PRES   REMARKS
MONTREAL       SUNNY     41  25  52 NW7       30.34S
QUEBEC CITY    MOSUNNY   41  23  48 N8        30.25F
SHERBROOKE       N/A    N/A N/A N/A NW6G17      N/A

_____REGIONAL ONTARIO LOCATIONS_____


CITY           SKY/WX    TMP DP  RH WIND       PRES   REMARKS
OTTAWA         SUNNY     39  21  48 NW8       30.39R

______KEY______
VSB  - VISIBILITY IN MILES
WCI  - WIND CHILL INDEX
HX   - HEAT INDEX
$$
NNNN



USA.gov is the U.S. government's official web portal to all federal, state and local government web resources and services.